Карточка аэропорта USRR

Внимание!
Информация на этой странице в стадии наполнения.
Если вы не увидели какой-то информации, или заметили неточность - пожалуйста сообщите нам!
Спасибо!
Команда RU-STAFF
Название аэропортаСургут
Название аэропорта (англ.)Surgut
Превышение196 ft. (59.7 m.)
Координаты61°20.502', 73°24.168'
Высота перехода700m
Эшелон переходаFL040
Коды ответчика5570-5577
Зона ОрВДТюмень РПИ (USTV)
Данные METARUSRR 060800Z 27004MPS 9999 SCT005 BKN036CB M12/M13 Q1036 R25/39//37 TEMPO 1000 BR BKN002 BKN015CB RMK OBST OBSC QFE772
Проноз погоды (TAF)USRR 060646Z 0606/0706 27004G10MPS 6000 SCT004 BKN020CB TEMPO 0606/0618 1000 SHSN BR BKN002 BKN016CB
NOTAMshow/hide NOTAM
AWOS   TABLE

Информация о ВПП

ВПП Длина ВПП (м.) Покрытие Курс ВПП Частота ILS
072780Асфальтобетон73110.5
252780Асфальтобетон253109.1

Диспетчерские позиции

Позывной Наименование органа УВД Частота
USRR_APPСургут-Подход129.300
USRR_TWRСургут-Вышка120.800



Спутниковое изображение